Time,TemperatureF,DewpointF,PressureIn,WindDirection,WindDirectionDegrees,WindSpeedMPH,WindSpeedGustMPH,Humidity,HourlyPrecipIn,Conditions,Clouds,dailyrainin,SoftwareType,DateUTC
2013-06-06 00:00:00,66.4,61.1,30.27,NE,45,1.0,5.0,83,0.00,,---,0.00,VWS V14.01,2013-06-06 05:00:00,
2013-06-06 00:10:00,66.3,61.0,30.27,NE,45,2.0,6.0,83,0.00,,---,0.00,VWS V14.01,2013-06-06 05:10:00,
2013-06-06 00:20:00,66.0,61.0,30.26,NE,45,1.0,5.0,84,0.00,,---,0.00,VWS V14.01,2013-06-06 05:20:00,
2013-06-06 00:30:00,65.6,60.6,30.26,ENE,68,3.0,6.0,84,0.00,,---,0.00,VWS V14.01,2013-06-06 05:30:00,
2013-06-06 00:40:00,65.5,60.5,30.26,NE,45,3.0,5.0,84,0.00,,---,0.00,VWS V14.01,2013-06-06 05:40:00,
2013-06-06 00:50:00,65.2,60.6,30.26,NE,45,2.0,4.0,85,0.00,,---,0.00,VWS V14.01,2013-06-06 05:50:00,
2013-06-06 01:00:00,65.0,60.4,30.26,NE,45,2.0,5.0,85,0.00,,---,0.00,VWS V14.01,2013-06-06 06:00:00,
2013-06-06 01:10:00,64.7,60.1,30.26,NE,45,2.0,5.0,85,0.00,,---,0.00,VWS V14.01,2013-06-06 06:10:00,
2013-06-06 01:20:00,64.5,60.2,30.25,NE,45,2.0,4.0,86,0.00,,---,0.00,VWS V14.01,2013-06-06 06:20:00,
2013-06-06 01:30:00,64.2,59.9,30.26,NE,45,1.0,4.0,86,0.00,,---,0.00,VWS V14.01,2013-06-06 06:30:00,
2013-06-06 01:40:00,64.0,59.7,30.26,NE,45,1.0,4.0,86,0.00,,---,0.00,VWS V14.01,2013-06-06 06:40:00,
2013-06-06 01:50:00,63.9,59.6,30.25,NE,45,0.0,2.0,86,0.00,,---,0.00,VWS V14.01,2013-06-06 06:50:00,
2013-06-06 02:00:00,63.5,59.2,30.26,NE,45,0.0,1.0,86,0.00,,---,0.00,VWS V14.01,2013-06-06 07:00:00,
2013-06-06 02:10:00,63.2,59.3,30.26,NE,45,0.0,3.0,87,0.00,,---,0.00,VWS V14.01,2013-06-06 07:10:00,
2013-06-06 02:20:00,63.1,59.2,30.24,NE,45,0.0,2.0,87,0.00,,---,0.00,VWS V14.01,2013-06-06 07:20:00,
2013-06-06 02:30:00,62.7,58.8,30.25,NE,45,0.0,0.0,87,0.00,,---,0.00,VWS V14.01,2013-06-06 07:30:00,
2013-06-06 02:40:00,62.4,58.5,30.25,NE,45,0.0,3.0,87,0.00,,---,0.00,VWS V14.01,2013-06-06 07:40:00,
2013-06-06 02:50:00,62.3,58.4,30.26,NE,45,1.0,3.0,87,0.00,,---,0.00,VWS V14.01,2013-06-06 07:50:00,
2013-06-06 03:00:00,62.0,58.1,30.25,NE,45,0.0,0.0,87,0.00,,---,0.00,VWS V14.01,2013-06-06 08:00:00,
2013-06-06 03:10:00,61.6,57.7,30.25,NE,45,0.0,1.0,87,0.00,,---,0.00,VWS V14.01,2013-06-06 08:10:00,
2013-06-06 03:20:00,61.6,58.0,30.26,NE,45,0.0,3.0,88,0.00,,---,0.00,VWS V14.01,2013-06-06 08:20:00,
2013-06-06 03:30:00,61.3,57.7,30.25,NE,45,0.0,0.0,88,0.00,,---,0.00,VWS V14.01,2013-06-06 08:30:00,
2013-06-06 03:40:00,61.2,57.6,30.25,NE,45,0.0,3.0,88,0.00,,---,0.00,VWS V14.01,2013-06-06 08:40:00,
2013-06-06 03:50:00,60.9,57.3,30.25,NE,45,0.0,3.0,88,0.00,,---,0.00,VWS V14.01,2013-06-06 08:50:00,
2013-06-06 04:00:00,60.5,56.9,30.24,NE,45,0.0,0.0,88,0.00,,---,0.00,VWS V14.01,2013-06-06 09:00:00,
2013-06-06 04:10:00,60.2,56.6,30.24,NE,45,0.0,0.0,88,0.00,,---,0.00,VWS V14.01,2013-06-06 09:10:00,
2013-06-06 04:20:00,60.1,56.5,30.24,NE,45,0.0,1.0,88,0.00,,---,0.00,VWS V14.01,2013-06-06 09:20:00,
2013-06-06 04:30:00,60.7,57.8,30.23,NE,45,1.0,4.0,90,0.00,,---,0.00,VWS V14.01,2013-06-06 09:30:00,
2013-06-06 04:40:00,60.9,58.0,30.23,NE,45,1.0,3.0,90,0.00,,---,0.00,VWS V14.01,2013-06-06 09:40:00,
2013-06-06 04:50:00,61.0,58.0,30.23,NE,45,1.0,3.0,90,0.00,,---,0.00,VWS V14.01,2013-06-06 09:50:00,
2013-06-06 05:00:00,61.3,58.3,30.23,NE,45,2.0,7.0,90,0.00,,---,0.00,VWS V14.01,2013-06-06 10:00:00,
2013-06-06 05:10:00,61.5,58.8,30.23,NNE,22,3.0,7.0,91,0.00,,---,0.00,VWS V14.01,2013-06-06 10:10:00,
2013-06-06 05:20:00,61.5,58.8,30.24,NE,45,2.0,6.0,91,0.00,,---,0.00,VWS V14.01,2013-06-06 10:20:00,
2013-06-06 05:30:00,61.3,58.7,30.24,NE,45,2.0,4.0,91,0.00,,---,0.00,VWS V14.01,2013-06-06 10:30:00,
2013-06-06 05:40:00,61.3,58.7,30.24,NE,45,1.0,4.0,91,0.00,,---,0.00,VWS V14.01,2013-06-06 10:40:00,
2013-06-06 05:50:00,61.2,58.6,30.25,NE,45,2.0,5.0,91,0.00,,---,0.00,VWS V14.01,2013-06-06 10:50:00,
2013-06-06 06:00:00,60.9,58.3,30.25,NE,45,2.0,6.0,91,0.00,,---,0.00,VWS V14.01,2013-06-06 11:00:00,
2013-06-06 06:10:00,60.9,58.6,30.25,NE,45,1.0,4.0,92,0.00,,---,0.00,VWS V14.01,2013-06-06 11:10:00,
2013-06-06 06:20:00,60.7,58.4,30.26,NE,45,0.0,3.0,92,0.00,,---,0.00,VWS V14.01,2013-06-06 11:20:00,
2013-06-06 06:30:00,60.5,58.2,30.25,NE,45,0.0,5.0,92,0.00,,---,0.00,VWS V14.01,2013-06-06 11:30:00,
2013-06-06 06:40:00,60.7,58.4,30.25,ENE,68,1.0,5.0,92,0.00,,---,0.00,VWS V14.01,2013-06-06 11:40:00,
2013-06-06 06:50:00,60.9,58.6,30.26,ENE,68,2.0,5.0,92,0.00,,---,0.00,VWS V14.01,2013-06-06 11:50:00,
2013-06-06 07:00:00,61.3,59.0,30.26,ENE,68,1.0,4.0,92,0.00,,---,0.00,VWS V14.01,2013-06-06 12:00:00,
2013-06-06 07:10:00,61.5,59.2,30.26,ENE,68,0.0,0.0,92,0.00,,---,0.00,VWS V14.01,2013-06-06 12:10:00,
2013-06-06 07:20:00,61.6,59.6,30.27,ENE,68,1.0,3.0,93,0.00,,---,0.00,VWS V14.01,2013-06-06 12:20:00,
2013-06-06 07:30:00,62.0,60.0,30.27,ENE,68,0.0,1.0,93,0.00,,---,0.00,VWS V14.01,2013-06-06 12:30:00,
2013-06-06 07:40:00,62.4,60.3,30.27,ENE,68,0.0,3.0,93,0.00,,---,0.00,VWS V14.01,2013-06-06 12:40:00,
2013-06-06 07:50:00,62.7,60.7,30.27,ENE,68,0.0,1.0,93,0.00,,---,0.00,VWS V14.01,2013-06-06 12:50:00,
2013-06-06 08:00:00,63.1,61.0,30.27,ENE,68,0.0,2.0,93,0.00,,---,0.00,VWS V14.01,2013-06-06 13:00:00,
2013-06-06 08:10:00,63.4,61.3,30.27,ENE,68,1.0,3.0,93,0.00,,---,0.00,VWS V14.01,2013-06-06 13:10:00,
2013-06-06 08:20:00,63.7,61.6,30.27,ENE,68,1.0,5.0,93,0.00,,---,0.00,VWS V14.01,2013-06-06 13:20:00,
2013-06-06 08:30:00,64.0,61.9,30.26,ENE,68,1.0,4.0,93,0.00,,---,0.00,VWS V14.01,2013-06-06 13:30:00,
2013-06-06 08:40:00,64.3,62.2,30.26,ENE,68,1.0,3.0,93,0.00,,---,0.00,VWS V14.01,2013-06-06 13:40:00,
2013-06-06 08:50:00,64.5,62.1,30.26,ENE,68,1.0,5.0,92,0.00,,---,0.00,VWS V14.01,2013-06-06 13:50:00,
2013-06-06 09:00:00,65.5,62.8,30.25,North,0,2.0,6.0,91,0.00,,---,0.00,VWS V14.01,2013-06-06 14:00:00,
2013-06-06 09:10:00,65.6,62.3,30.25,NNE,22,3.0,7.0,89,0.00,,---,0.00,VWS V14.01,2013-06-06 14:10:00,
2013-06-06 09:20:00,66.1,62.1,30.25,NNE,22,4.0,10.0,87,0.00,,---,0.00,VWS V14.01,2013-06-06 14:20:00,
2013-06-06 09:30:00,66.6,62.0,30.25,NE,45,4.0,7.0,85,0.00,,---,0.00,VWS V14.01,2013-06-06 14:30:00,
2013-06-06 09:40:00,67.4,62.1,30.25,NE,45,3.0,7.0,83,0.00,,---,0.00,VWS V14.01,2013-06-06 14:40:00,
2013-06-06 09:50:00,68.3,63.3,30.26,NE,45,2.0,6.0,84,0.00,,---,0.00,VWS V14.01,2013-06-06 14:50:00,
2013-06-06 10:00:00,68.9,62.1,30.26,NE,45,3.0,7.0,79,0.00,,---,0.00,VWS V14.01,2013-06-06 15:00:00,
2013-06-06 10:10:00,70.3,62.4,30.26,NE,45,4.0,9.0,76,0.00,,---,0.00,VWS V14.01,2013-06-06 15:10:00,
2013-06-06 10:20:00,71.3,62.2,30.26,ENE,68,5.0,11.0,73,0.00,,---,0.00,VWS V14.01,2013-06-06 15:20:00,
2013-06-06 10:30:00,71.3,61.0,30.26,NE,45,5.0,11.0,70,0.00,,---,0.00,VWS V14.01,2013-06-06 15:30:00,
2013-06-06 10:40:00,72.7,62.4,30.26,ENE,68,6.0,13.0,70,0.00,,---,0.00,VWS V14.01,2013-06-06 15:40:00,
2013-06-06 10:50:00,71.8,61.1,30.27,NNE,22,2.0,10.0,69,0.00,,---,0.00,VWS V14.01,2013-06-06 15:50:00,
2013-06-06 11:00:00,71.1,61.2,30.26,NE,45,5.0,11.0,71,0.00,,---,0.00,VWS V14.01,2013-06-06 16:00:00,
2013-06-06 11:10:00,71.8,61.5,30.26,NE,45,4.0,9.0,70,0.00,,---,0.00,VWS V14.01,2013-06-06 16:10:00,
2013-06-06 11:20:00,71.6,60.1,30.26,NNE,22,5.0,10.0,67,0.00,,---,0.00,VWS V14.01,2013-06-06 16:20:00,
2013-06-06 11:30:00,71.5,60.8,30.26,ENE,68,3.0,8.0,69,0.00,,---,0.00,VWS V14.01,2013-06-06 16:30:00,
2013-06-06 11:40:00,71.3,60.6,30.26,North,0,3.0,7.0,69,0.00,,---,0.00,VWS V14.01,2013-06-06 16:40:00,
2013-06-06 11:50:00,71.3,60.6,30.26,NNE,22,4.0,7.0,69,0.00,,---,0.00,VWS V14.01,2013-06-06 16:50:00,
2013-06-06 12:00:00,70.9,60.2,30.26,North,0,4.0,10.0,69,0.00,,---,0.00,VWS V14.01,2013-06-06 17:00:00,
2013-06-06 12:10:00,72.0,61.3,30.26,North,0,2.0,6.0,69,0.00,,---,0.00,VWS V14.01,2013-06-06 17:10:00,
2013-06-06 12:20:00,71.5,60.4,30.27,NNW,338,2.0,5.0,68,0.00,,---,0.00,VWS V14.01,2013-06-06 17:20:00,
2013-06-06 12:30:00,71.5,60.0,30.28,NW,315,1.0,5.0,67,0.00,,---,0.00,VWS V14.01,2013-06-06 17:30:00,
2013-06-06 12:40:00,71.3,60.2,30.28,North,0,1.0,5.0,68,0.00,,---,0.00,VWS V14.01,2013-06-06 17:40:00,
2013-06-06 12:50:00,71.6,60.1,30.28,North,0,1.0,6.0,67,0.00,,---,0.00,VWS V14.01,2013-06-06 17:50:00,
2013-06-06 13:00:00,71.5,60.8,30.28,NW,315,2.0,5.0,69,0.00,,---,0.00,VWS V14.01,2013-06-06 18:00:00,
2013-06-06 13:10:00,71.3,60.6,30.28,NW,315,2.0,5.0,69,0.00,,---,0.00,VWS V14.01,2013-06-06 18:10:00,
2013-06-06 13:20:00,71.6,60.9,30.28,WNW,292,1.0,5.0,69,0.00,,---,0.00,VWS V14.01,2013-06-06 18:20:00,
2013-06-06 13:30:00,71.8,61.1,30.27,NW,315,2.0,7.0,69,0.00,,---,0.00,VWS V14.01,2013-06-06 18:30:00,
2013-06-06 13:40:00,71.8,61.5,30.27,WNW,292,4.0,7.0,70,0.00,,---,0.00,VWS V14.01,2013-06-06 18:40:00,
2013-06-06 13:50:00,71.3,61.8,30.27,NW,315,4.0,7.0,72,0.00,,---,0.00,VWS V14.01,2013-06-06 18:50:00,
2013-06-06 14:00:00,72.0,62.9,30.26,WNW,292,4.0,7.0,73,0.00,,---,0.00,VWS V14.01,2013-06-06 19:00:00,
2013-06-06 14:10:00,73.0,61.8,30.26,NNW,338,3.0,7.0,68,0.00,,---,0.00,VWS V14.01,2013-06-06 19:10:00,
2013-06-06 14:20:00,72.7,62.0,30.25,NNW,338,5.0,12.0,69,0.00,,---,0.00,VWS V14.01,2013-06-06 19:20:00,
2013-06-06 14:30:00,71.8,61.1,30.25,NNW,338,6.0,12.0,69,0.00,,---,0.00,VWS V14.01,2013-06-06 19:30:00,
2013-06-06 14:40:00,71.3,61.8,30.25,NNW,338,5.0,9.0,72,0.00,,---,0.00,VWS V14.01,2013-06-06 19:40:00,
2013-06-06 14:50:00,71.1,61.6,30.26,NNW,338,4.0,10.0,72,0.00,,---,0.00,VWS V14.01,2013-06-06 19:50:00,
2013-06-06 15:00:00,71.8,61.9,30.25,NNW,338,3.0,6.0,71,0.00,,---,0.00,VWS V14.01,2013-06-06 20:00:00,
2013-06-06 15:10:00,72.3,61.6,30.25,North,0,4.0,11.0,69,0.00,,---,0.00,VWS V14.01,2013-06-06 20:10:00,
2013-06-06 15:20:00,72.0,61.3,30.25,North,0,5.0,12.0,69,0.00,,---,0.00,VWS V14.01,2013-06-06 20:20:00,
2013-06-06 15:30:00,72.0,60.9,30.25,North,0,4.0,10.0,68,0.00,,---,0.00,VWS V14.01,2013-06-06 20:30:00,
2013-06-06 15:40:00,72.1,60.5,30.25,NNW,338,5.0,12.0,67,0.00,,---,0.00,VWS V14.01,2013-06-06 20:40:00,
2013-06-06 15:50:00,73.5,60.6,30.25,North,0,7.0,14.0,64,0.00,,---,0.00,VWS V14.01,2013-06-06 20:50:00,
2013-06-06 16:00:00,74.4,60.5,30.25,North,0,6.0,13.0,62,0.00,,---,0.00,VWS V14.01,2013-06-06 21:00:00,
2013-06-06 16:10:00,74.6,60.7,30.25,North,0,5.0,12.0,62,0.00,,---,0.00,VWS V14.01,2013-06-06 21:10:00,
2013-06-06 16:20:00,74.2,59.9,30.25,NNW,338,6.0,13.0,61,0.00,,---,0.00,VWS V14.01,2013-06-06 21:20:00,
2013-06-06 16:30:00,74.0,60.2,30.24,NE,45,6.0,13.0,62,0.00,,---,0.00,VWS V14.01,2013-06-06 21:30:00,
2013-06-06 16:40:00,73.5,60.2,30.24,NNE,22,6.0,12.0,63,0.00,,---,0.00,VWS V14.01,2013-06-06 21:40:00,
2013-06-06 16:50:00,73.5,60.6,30.25,North,0,7.0,14.0,64,0.00,,---,0.00,VWS V14.01,2013-06-06 21:50:00,
2013-06-06 16:57:00,73.0,60.1,30.24,NNE,32,6.0,9.0,64,0.00,,---,0.00,VWS V14.01,2013-06-06 21:57:00,
2013-06-06 16:58:00,73.0,60.1,30.24,NNE,30,5.0,9.0,64,0.00,,---,0.00,VWS V14.01,2013-06-06 21:58:00,
2013-06-06 17:00:00,72.8,59.9,30.24,NE,55,1.0,9.0,64,0.00,,---,0.00,VWS V14.01,2013-06-06 22:00:00,
2013-06-06 17:03:00,72.8,59.5,30.24,North,355,4.0,10.0,63,0.00,,---,0.00,VWS V14.01,2013-06-06 22:03:00,
2013-06-06 17:08:00,72.8,59.9,30.24,North,355,4.0,10.0,64,0.00,,---,0.00,VWS V14.01,2013-06-06 22:08:00,
2013-06-06 17:10:00,74.6,60.7,30.25,North,0,5.0,12.0,62,0.00,,---,0.00,VWS V14.01,2013-06-06 22:10:00,
2013-06-06 17:11:00,72.8,59.9,30.24,North,5,7.0,10.0,64,0.00,,---,0.00,VWS V14.01,2013-06-06 22:11:00,
2013-06-06 17:13:00,72.7,59.8,30.24,NW,320,7.0,7.0,64,0.00,,---,0.00,VWS V14.01,2013-06-06 22:13:00,
2013-06-06 17:18:00,72.5,59.2,30.24,NNE,21,6.0,11.0,63,0.00,,---,0.00,VWS V14.01,2013-06-06 22:18:00,
2013-06-06 17:20:00,72.5,59.6,30.24,NNE,26,4.0,11.0,64,0.00,,---,0.00,VWS V14.01,2013-06-06 22:20:00,
2013-06-06 17:30:00,74.0,60.2,30.24,NE,45,6.0,13.0,62,0.00,,---,0.00,VWS V14.01,2013-06-06 22:30:00,
2013-06-06 17:37:00,72.1,60.1,30.24,NE,50,9.0,9.0,66,0.00,,---,0.00,VWS V14.01,2013-06-06 22:37:00,
2013-06-06 17:40:00,72.3,60.3,30.24,North,360,6.0,9.0,66,0.00,,---,0.00,VWS V14.01,2013-06-06 22:40:00,
2013-06-06 17:42:00,72.3,59.9,30.24,NNE,22,1.0,9.0,65,0.00,,---,0.00,VWS V14.01,2013-06-06 22:42:00,
2013-06-06 17:59:00,72.5,58.8,30.24,North,9,4.0,4.0,62,0.00,,---,0.00,VWS V14.01,2013-06-06 22:59:00,
2013-06-06 18:00:00,72.5,58.3,30.24,NNE,30,3.0,6.0,61,0.00,,---,0.00,VWS V14.01,2013-06-06 23:00:00,
2013-06-06 18:04:00,72.3,59.0,30.24,North,9,4.0,6.0,63,0.00,,---,0.00,VWS V14.01,2013-06-06 23:04:00,
2013-06-06 18:09:00,72.1,58.8,30.24,NNE,28,1.0,8.0,63,0.00,,---,0.00,VWS V14.01,2013-06-06 23:09:00,
2013-06-06 18:10:00,72.0,58.7,30.24,NNE,14,3.0,8.0,63,0.00,,---,0.00,VWS V14.01,2013-06-06 23:10:00,
2013-06-06 18:11:00,72.8,59.9,30.24,North,5,7.0,10.0,64,0.00,,---,0.00,VWS V14.01,2013-06-06 23:11:00,
2013-06-06 18:14:00,72.0,59.2,30.24,NNE,32,5.0,6.0,64,0.00,,---,0.00,VWS V14.01,2013-06-06 23:14:00,
2013-06-06 18:19:00,71.8,59.0,30.24,NE,34,1.0,6.0,64,0.00,,---,0.00,VWS V14.01,2013-06-06 23:19:00,
2013-06-06 18:20:00,71.8,59.0,30.24,NE,34,3.0,6.0,64,0.00,,---,0.00,VWS V14.01,2013-06-06 23:20:00,
2013-06-06 18:24:00,71.8,59.0,30.24,NNW,347,6.0,9.0,64,0.00,,---,0.00,VWS V14.01,2013-06-06 23:24:00,
2013-06-06 18:29:00,71.6,58.8,30.24,NNE,30,4.0,9.0,64,0.00,,---,0.00,VWS V14.01,2013-06-06 23:29:00,
2013-06-06 18:30:00,71.5,58.7,30.24,NNE,19,1.0,9.0,64,0.00,,---,0.00,VWS V14.01,2013-06-06 23:30:00,
2013-06-06 18:34:00,71.3,58.5,30.24,NNE,33,12.0,12.0,64,0.00,,---,0.00,VWS V14.01,2013-06-06 23:34:00,
2013-06-06 18:39:00,71.1,58.3,30.24,North,355,5.0,12.0,64,0.00,,---,0.00,VWS V14.01,2013-06-06 23:39:00,
2013-06-06 18:40:00,71.1,58.3,30.24,NNE,28,3.0,12.0,64,0.00,,---,0.00,VWS V14.01,2013-06-06 23:40:00,
2013-06-06 18:44:00,70.9,58.1,30.24,North,351,2.0,11.0,64,0.00,,---,0.00,VWS V14.01,2013-06-06 23:44:00,
2013-06-06 18:49:00,70.9,58.6,30.24,NNE,20,2.0,11.0,65,0.00,,---,0.00,VWS V14.01,2013-06-06 23:49:00,
2013-06-06 18:50:00,70.8,58.5,30.24,North,11,3.0,11.0,65,0.00,,---,0.00,VWS V14.01,2013-06-06 23:50:00,
2013-06-06 18:54:00,70.8,58.0,30.24,North,355,4.0,8.0,64,0.00,,---,0.00,VWS V14.01,2013-06-06 23:54:00,
2013-06-06 18:59:00,70.6,58.3,30.24,NNE,23,2.0,8.0,65,0.00,,---,0.00,VWS V14.01,2013-06-06 23:59:00,
2013-06-06 19:00:00,70.6,58.3,30.24,North,5,4.0,8.0,65,0.00,,---,0.00,VWS V14.01,2013-06-07 00:00:00,
2013-06-06 19:04:00,70.6,58.3,30.24,North,355,3.0,6.0,65,0.00,,---,0.00,VWS V14.01,2013-06-07 00:04:00,
2013-06-06 19:08:00,70.6,58.3,30.24,North,5,2.0,7.0,65,0.00,,---,0.00,VWS V14.01,2013-06-07 00:08:00,
2013-06-06 19:10:00,70.6,58.3,30.24,NNW,342,3.0,7.0,65,0.00,,---,0.00,VWS V14.01,2013-06-07 00:10:00,
2013-06-06 19:13:00,70.4,58.1,30.24,North,360,3.0,5.0,65,0.00,,---,0.00,VWS V14.01,2013-06-07 00:13:00,
2013-06-06 19:18:00,70.4,58.1,30.24,North,5,2.0,5.0,65,0.00,,---,0.00,VWS V14.01,2013-06-07 00:18:00,
2013-06-06 19:20:00,70.4,58.5,30.24,North,5,2.0,5.0,66,0.00,,---,0.00,VWS V14.01,2013-06-07 00:20:00,
2013-06-06 19:23:00,70.4,58.5,30.24,North,5,3.0,4.0,66,0.00,,---,0.00,VWS V14.01,2013-06-07 00:23:00,
2013-06-06 19:28:00,70.4,58.5,30.24,North,5,1.0,4.0,66,0.00,,---,0.00,VWS V14.01,2013-06-07 00:28:00,
2013-06-06 19:30:00,70.8,58.9,30.24,North,5,1.0,4.0,66,0.00,,---,0.00,VWS V14.01,2013-06-07 00:30:00,
2013-06-06 19:33:00,70.9,58.6,30.24,North,5,2.0,4.0,65,0.00,,---,0.00,VWS V14.01,2013-06-07 00:33:00,
2013-06-06 19:38:00,70.9,58.6,30.24,North,350,4.0,10.0,65,0.00,,---,0.00,VWS V14.01,2013-06-07 00:38:00,
2013-06-06 19:40:00,70.9,58.1,30.24,North,360,2.0,11.0,64,0.00,,---,0.00,VWS V14.01,2013-06-07 00:40:00,
2013-06-06 19:43:00,71.1,58.3,30.24,NNW,348,1.0,6.0,64,0.00,,---,0.00,VWS V14.01,2013-06-07 00:43:00,
2013-06-06 19:48:00,70.6,57.4,30.25,North,350,4.0,10.0,63,0.00,,---,0.00,VWS V14.01,2013-06-07 00:48:00,
2013-06-06 19:50:00,70.4,57.2,30.25,North,5,4.0,10.0,63,0.00,,---,0.00,VWS V14.01,2013-06-07 00:50:00,
2013-06-06 19:53:00,70.3,57.6,30.25,NNW,346,3.0,7.0,64,0.00,,---,0.00,VWS V14.01,2013-06-07 00:53:00,
2013-06-06 19:58:00,69.9,57.2,30.25,North,5,6.0,10.0,64,0.00,,---,0.00,VWS V14.01,2013-06-07 00:58:00,
2013-06-06 20:00:00,69.8,57.1,30.25,North,355,3.0,10.0,64,0.00,,---,0.00,VWS V14.01,2013-06-07 01:00:00,
2013-06-06 20:03:00,69.6,56.9,30.25,NNW,341,2.0,9.0,64,0.00,,---,0.00,VWS V14.01,2013-06-07 01:03:00,
2013-06-06 20:08:00,69.3,57.0,30.25,NNW,342,3.0,9.0,65,0.00,,---,0.00,VWS V14.01,2013-06-07 01:08:00,
2013-06-06 20:10:00,69.3,57.5,30.25,NNW,344,2.0,9.0,66,0.00,,---,0.00,VWS V14.01,2013-06-07 01:10:00,
2013-06-06 20:13:00,69.3,57.0,30.25,NNW,346,3.0,6.0,65,0.00,,---,0.00,VWS V14.01,2013-06-07 01:13:00,
2013-06-06 20:18:00,69.3,57.0,30.25,NNE,23,1.0,6.0,65,0.00,,---,0.00,VWS V14.01,2013-06-07 01:18:00,
2013-06-06 20:20:00,69.3,57.0,30.25,NNE,23,0.0,6.0,65,0.00,,---,0.00,VWS V14.01,2013-06-07 01:20:00,
2013-06-06 20:23:00,69.3,57.0,30.25,NNE,23,0.0,3.0,65,0.00,,---,0.00,VWS V14.01,2013-06-07 01:23:00,
2013-06-06 20:28:00,69.1,56.8,30.25,NNE,23,1.0,3.0,65,0.00,,---,0.00,VWS V14.01,2013-06-07 01:28:00,
2013-06-06 20:30:00,69.1,56.8,30.25,NNE,23,2.0,3.0,65,0.00,,---,0.00,VWS V14.01,2013-06-07 01:30:00,
2013-06-06 20:33:00,68.9,56.7,30.25,NNE,23,1.0,3.0,65,0.00,,---,0.00,VWS V14.01,2013-06-07 01:33:00,
2013-06-06 20:38:00,68.8,57.0,30.25,NNE,23,3.0,3.0,66,0.00,,---,0.00,VWS V14.01,2013-06-07 01:38:00,
2013-06-06 20:40:00,68.8,57.0,30.25,NNE,23,0.0,3.0,66,0.00,,---,0.00,VWS V14.01,2013-06-07 01:40:00,
2013-06-06 20:43:00,68.6,56.8,30.25,NNE,23,1.0,2.0,66,0.00,,---,0.00,VWS V14.01,2013-06-07 01:43:00,
2013-06-06 20:48:00,68.4,56.6,30.25,NNE,23,0.0,2.0,66,0.00,,---,0.00,VWS V14.01,2013-06-07 01:48:00,
2013-06-06 20:50:00,68.4,56.6,30.25,NNE,23,0.0,2.0,66,0.00,,---,0.00,VWS V14.01,2013-06-07 01:50:00,
2013-06-06 20:53:00,68.3,56.9,30.25,NNE,23,0.0,2.0,67,0.00,,---,0.00,VWS V14.01,2013-06-07 01:53:00,
2013-06-06 20:58:00,67.9,57.0,30.25,NNE,23,0.0,2.0,68,0.00,,---,0.00,VWS V14.01,2013-06-07 01:58:00,
2013-06-06 21:00:00,67.9,57.4,30.25,NNE,23,0.0,2.0,69,0.00,,---,0.00,VWS V14.01,2013-06-07 02:00:00,
2013-06-06 21:03:00,67.8,57.3,30.25,NNE,23,0.0,0.0,69,0.00,,---,0.00,VWS V14.01,2013-06-07 02:03:00,
2013-06-06 21:08:00,67.3,57.2,30.25,NNE,23,0.0,1.0,70,0.00,,---,0.00,VWS V14.01,2013-06-07 02:08:00,
2013-06-06 21:10:00,67.3,57.2,30.25,NNE,23,0.0,1.0,70,0.00,,---,0.00,VWS V14.01,2013-06-07 02:10:00,
2013-06-06 21:13:00,66.9,57.2,30.25,NNE,23,0.0,0.0,71,0.00,,---,0.00,VWS V14.01,2013-06-07 02:13:00,
2013-06-06 21:18:00,66.6,56.9,30.26,NNE,23,0.0,0.0,71,0.00,,---,0.00,VWS V14.01,2013-06-07 02:18:00,
2013-06-06 21:20:00,66.4,56.7,30.26,NNE,23,0.0,0.0,71,0.00,,---,0.00,VWS V14.01,2013-06-07 02:20:00,
2013-06-06 21:23:00,66.3,56.6,30.26,NNE,23,0.0,0.0,71,0.00,,---,0.00,VWS V14.01,2013-06-07 02:23:00,
2013-06-06 21:28:00,65.8,56.5,30.26,NNE,23,0.0,0.0,72,0.00,,---,0.00,VWS V14.01,2013-06-07 02:28:00,
2013-06-06 21:30:00,65.8,56.5,30.27,NNE,23,0.0,1.0,72,0.00,,---,0.00,VWS V14.01,2013-06-07 02:30:00,
2013-06-06 21:33:00,65.5,56.2,30.27,NNE,23,0.0,1.0,72,0.00,,---,0.00,VWS V14.01,2013-06-07 02:33:00,
2013-06-06 21:38:00,65.2,56.3,30.27,NNE,23,0.0,1.0,73,0.00,,---,0.00,VWS V14.01,2013-06-07 02:38:00,
2013-06-06 21:40:00,65.0,56.2,30.27,NNE,23,0.0,1.0,73,0.00,,---,0.00,VWS V14.01,2013-06-07 02:40:00,
2013-06-06 21:43:00,64.8,56.3,30.27,NNE,23,0.0,0.0,74,0.00,,---,0.00,VWS V14.01,2013-06-07 02:43:00,
2013-06-06 21:48:00,64.3,55.8,30.27,NNE,23,1.0,1.0,74,0.00,,---,0.00,VWS V14.01,2013-06-07 02:48:00,
2013-06-06 21:50:00,64.3,56.2,30.27,NNE,23,0.0,1.0,75,0.00,,---,0.00,VWS V14.01,2013-06-07 02:50:00,
2013-06-06 21:53:00,64.0,55.9,30.27,NNE,23,0.0,1.0,75,0.00,,---,0.00,VWS V14.01,2013-06-07 02:53:00,
2013-06-06 21:58:00,63.7,55.6,30.27,NNE,23,0.0,2.0,75,0.00,,---,0.00,VWS V14.01,2013-06-07 02:58:00,
2013-06-06 22:00:00,63.7,56.0,30.28,NNE,23,0.0,2.0,76,0.00,,---,0.00,VWS V14.01,2013-06-07 03:00:00,
2013-06-06 22:03:00,63.4,55.7,30.28,NNE,23,1.0,1.0,76,0.00,,---,0.00,VWS V14.01,2013-06-07 03:03:00,
2013-06-06 22:08:00,63.2,55.5,30.28,NNE,23,0.0,2.0,76,0.00,,---,0.00,VWS V14.01,2013-06-07 03:08:00,
2013-06-06 22:10:00,63.1,55.8,30.28,NNE,23,1.0,2.0,77,0.00,,---,0.00,VWS V14.01,2013-06-07 03:10:00,
2013-06-06 22:13:00,62.9,55.6,30.28,NNE,23,0.0,2.0,77,0.00,,---,0.00,VWS V14.01,2013-06-07 03:13:00,
2013-06-06 22:18:00,62.7,55.8,30.27,NNE,23,0.0,2.0,78,0.00,,---,0.00,VWS V14.01,2013-06-07 03:18:00,
2013-06-06 22:20:00,62.6,55.7,30.27,NNE,23,0.0,2.0,78,0.00,,---,0.00,VWS V14.01,2013-06-07 03:20:00,
2013-06-06 22:23:00,62.6,55.7,30.27,NNE,23,0.0,0.0,78,0.00,,---,0.00,VWS V14.01,2013-06-07 03:23:00,
2013-06-06 22:28:00,62.3,55.4,30.27,NNE,23,0.0,1.0,78,0.00,,---,0.00,VWS V14.01,2013-06-07 03:28:00,
2013-06-06 22:30:00,62.3,55.4,30.29,NNE,23,0.0,1.0,78,0.00,,---,0.00,VWS V14.01,2013-06-07 03:30:00,
2013-06-06 22:33:00,62.1,55.2,30.29,NNE,23,0.0,1.0,78,0.00,,---,0.00,VWS V14.01,2013-06-07 03:33:00,
2013-06-06 22:38:00,62.0,55.4,30.29,NNE,23,0.0,1.0,79,0.00,,---,0.00,VWS V14.01,2013-06-07 03:38:00,
2013-06-06 22:40:00,62.0,55.4,30.29,NNE,23,0.0,1.0,79,0.00,,---,0.00,VWS V14.01,2013-06-07 03:40:00,
2013-06-06 22:43:00,61.8,55.2,30.29,NNE,23,0.0,2.0,79,0.00,,---,0.00,VWS V14.01,2013-06-07 03:43:00,
2013-06-06 22:48:00,61.6,55.4,30.29,NNE,23,1.0,2.0,80,0.00,,---,0.00,VWS V14.01,2013-06-07 03:48:00,
2013-06-06 22:50:00,61.6,55.4,30.29,NNE,23,0.0,2.0,80,0.00,,---,0.00,VWS V14.01,2013-06-07 03:50:00,
2013-06-06 22:53:00,61.5,55.3,30.29,NNE,23,0.0,0.0,80,0.00,,---,0.00,VWS V14.01,2013-06-07 03:53:00,
2013-06-06 22:58:00,61.3,55.1,30.29,NNE,23,0.0,0.0,80,0.00,,---,0.00,VWS V14.01,2013-06-07 03:58:00,
2013-06-06 23:00:00,61.3,55.1,30.29,NNE,23,0.0,0.0,80,0.00,,---,0.00,VWS V14.01,2013-06-07 04:00:00,
2013-06-06 23:01:00,61.3,55.1,30.29,NNE,23,0.0,0.0,80,0.00,,---,0.00,VWS V14.01,2013-06-07 04:01:00,
2013-06-06 23:02:00,61.3,55.1,30.29,NNE,23,0.0,0.0,80,0.00,,---,0.00,VWS V14.01,2013-06-07 04:02:00,
2013-06-06 23:07:00,61.2,55.0,30.29,NNE,23,0.0,0.0,80,0.00,,---,0.00,VWS V14.01,2013-06-07 04:07:00,
2013-06-06 23:10:00,60.9,54.7,30.29,NNE,23,0.0,0.0,80,0.00,,---,0.00,VWS V14.01,2013-06-07 04:10:00,
2013-06-06 23:12:00,60.9,54.7,30.29,NNE,23,0.0,0.0,80,0.00,,---,0.00,VWS V14.01,2013-06-07 04:12:00,
2013-06-06 23:17:00,60.5,54.3,30.30,NNE,23,0.0,0.0,80,0.00,,---,0.00,VWS V14.01,2013-06-07 04:17:00,
2013-06-06 23:20:00,60.4,54.2,30.30,NNE,23,0.0,0.0,80,0.00,,---,0.00,VWS V14.01,2013-06-07 04:20:00,
2013-06-06 23:22:00,60.4,54.2,30.30,NNE,23,0.0,0.0,80,0.00,,---,0.00,VWS V14.01,2013-06-07 04:22:00,
2013-06-06 23:27:00,60.2,54.0,30.30,NNE,23,0.0,0.0,80,0.00,,---,0.00,VWS V14.01,2013-06-07 04:27:00,
2013-06-06 23:30:00,60.1,53.9,30.30,NNE,23,0.0,0.0,80,0.00,,---,0.00,VWS V14.01,2013-06-07 04:30:00,
2013-06-06 23:32:00,59.9,53.7,30.30,NNE,23,0.0,0.0,80,0.00,,---,0.00,VWS V14.01,2013-06-07 04:32:00,
2013-06-06 23:37:00,59.8,54.0,30.30,NNE,23,0.0,0.0,81,0.00,,---,0.00,VWS V14.01,2013-06-07 04:37:00,
2013-06-06 23:40:00,59.6,53.8,30.30,NNE,23,0.0,0.0,81,0.00,,---,0.00,VWS V14.01,2013-06-07 04:40:00,
2013-06-06 23:42:00,59.6,53.8,30.30,NNE,23,0.0,0.0,81,0.00,,---,0.00,VWS V14.01,2013-06-07 04:42:00,
2013-06-06 23:47:00,59.3,53.5,30.30,NNE,23,0.0,0.0,81,0.00,,---,0.00,VWS V14.01,2013-06-07 04:47:00,
2013-06-06 23:50:00,59.3,53.5,30.30,NNE,23,0.0,0.0,81,0.00,,---,0.00,VWS V14.01,2013-06-07 04:50:00,
2013-06-06 23:52:00,59.2,53.4,30.30,NNE,23,0.0,0.0,81,0.00,,---,0.00,VWS V14.01,2013-06-07 04:52:00,
2013-06-06 23:57:00,59.0,53.2,30.30,NNE,23,0.0,0.0,81,0.00,,---,0.00,VWS V14.01,2013-06-07 04:57:00,